Weather in Yermolovka

Russia / Ulyanovsk Oblast     54°00′15″N   46°52′28″E
В апреле 2022 года жителям России запретили посещать сайт meteo.paraplan.net по решению Генеральной прокуратуры. Аудитория сайта уменьшилась в 10 раз. Владельцы сайта не видят смысла в поддержке погодного сервера в таких условиях. Сайт будет закрыт в октябре.
temp.,
°C
wind,
m/s
gust,
m/s
humid.,
%
clouds,
%
prec.,
mm/h
press.,
hPa
HPBL,
m
4 october, tue
tue401:00+10sse51390100 0.8 1018777
04:00+10sse51289100 0.9 1018731
07:00+10sse51091100 0.1 1019635
10:00+10sse5128798 0.3 1020543
13:00+12sse51159100 0.1 1021667
16:00+13sse51152100 0.1 1021765
19:00+11sse41355100 0.0 1021596
22:00+9sse61491100 1.5 1022977
5 october, wed
wed501:00+8sse61387100 1.8 1021757
04:00+8sse61289100 1.8 1021725
07:00+8sse51291100 0.0 1020483
10:00+9sse51276100 0.1 1020491
13:00+14s6966100 0.0 10191062
16:00+13ssw4977100 0.4 1018830
19:00+12ssw41086100 0.8 1018577
22:00+9s26976 1.4 1017170
6 october, thu
thu601:00+8sw2790100 0.0 1017222
04:00+8sw388911 0.1 1017659
07:00+5wsw4109326 0.0 1017637
10:00+6w598525 0.2 1017952
13:00+8wsw5871100 0.3 10171311
16:00+7w4672100 0.6 10181128
19:00+4w278728 0.2 1019195
22:00+4w388998 0.2 1020290
7 october, fri
fri701:00+5wsw2788100 0.0 1020272
04:00+3wsw25945 0.0 1020120
07:00+3sw39915 0.0 1020190
10:00+6ssw41283100 0.0 1019371
13:00+11wsw51179100 0.0 1017791
16:00+11wnw5108592 0.0 1018744
19:00+10wnw41085100 0.1 1020767
22:00+10wnw5969100 0.1 10221076
8 october, sat
sat801:00+9wnw497218 0.0 1023728
04:00+6w411840 0.0 1024348
07:00+5w39940 0.0 1026229
10:00+9w47760 0.0 1027400
13:00+13w35570 0.0 1026833
16:00+13wsw35530 0.0 1025876
19:00+8sw23750 0.0 102651
22:00+7sw36815 0.0 1026103